Regional Weather Roundup
Issued by NWS Albany, NY

Home | Current Version | Previous Version | Text Only | Print | Product List | Glossary On
Versions: 1 2 3 4 5 6 7 8 9 10 11 12 13 14 15 16 17 18 19 20 21 22 23 24 25 26 27 28 29 30 31 32 33 34 35 36 37 38 39 40 41 42 43 44 45 46 47 48 49 50
000
ASUS41 KALY 062310
RWRALY

NEW YORK STATE HOURLY WEATHER ROUNDUP
NATIONAL WEATHER SERVICE ALBANY NY
700 PM EDT MON JUL 06 2015

NOTE: "FAIR" INDICATES FEW OR NO CLOUDS BELOW 12,000 FEET WITH NO
SIGNIFICANT WEATHER AND/OR NO OBSTRUCTIONS TO VISIBILITY.

NYZ032-033-038>043-046>054-057>066-NYZ062>081-070000-
EAST


CITY           SKY/WX    TMP DP  RH WIND       PRES   REMARKS
ALBANY         MOSUNNY   82  64  54 S9        30.08S
GLENS FALLS    MOSUNNY   80  62  54 S6        30.07S
POUGHKEEPSIE   PTSUNNY   80  64  58 S7        30.10S
NEWBURGH       PTSUNNY   81  70  69 VRB6      30.12F HAZE
MONTGOMERY     PTSUNNY   78  67  68 SE6       30.10S
WHITE PLAINS   PTSUNNY   77  66  68 S8        30.12F
ISLIP          PTSUNNY   76  62  62 SE10      30.12S
NEW YORK CITY  PTSUNNY   79  64  60 S10       30.11S
CENTRAL PARK   PTSUNNY   78  65  63 VRB3      30.15S
$$

NYZ005>009-017-018-044>046-055-056-070000-
CENTRAL


CITY           SKY/WX    TMP DP  RH WIND       PRES   REMARKS
FULTON         PTSUNNY   81  67  62 VRB6      30.01F
SYRACUSE       PTSUNNY   80  67  64 S12       30.02F
ROME           SUNNY     82  64  54 S9        30.06F
ELMIRA         MOSUNNY   81  70  69 S7        30.03F
BINGHAMTON     SUNNY     74  66  76 SE8       30.10F
MONTICELLO     PTSUNNY   75  66  73 SE8       30.15S
$$

NYZ026>034-041>043-070000-
NORTH


CITY           SKY/WX    TMP DP  RH WIND       PRES   REMARKS
WATERTOWN      MOSUNNY   81  61  50 S5        30.01S
FORT DRUM      NOT AVBL
MASSENA        SUNNY     82  62  50 CALM      30.02S
SARANAC LAKE   SUNNY     78  49  35 S8        30.07F
PLATTSBURGH    SUNNY     79  62  56 S8        30.02F
$$

NYZ001>004-010>016-019>021-070000-
WEST


CITY           SKY/WX    TMP DP  RH WIND       PRES   REMARKS
NIAGARA FALLS  PTSUNNY   83  68  60 SW3       29.98R THUNDER
BUFFALO        LGT RAIN  75  68  78 S5        30.00R
JAMESTOWN      CLOUDY    73  66  78 S7        30.07F
WELLSVILLE     PTSUNNY   74  66  76 VRB6      30.10F
ROCHESTER      PTSUNNY   85  67  54 S8        29.99F
PENN YAN       PTSUNNY   80  69  69 SE8       30.04F
$$

             KEY
       WCI = WIND CHILL INDEX
       VSB = VISIBILITY
       HX  = HEAT INDEX
$$



USA.gov is the U.S. government's official web portal to all federal, state and local government web resources and services.